When you browse on this site, cookies collect data to enhance your experience and personalize the content and advertising you see.
Visit our Privacy Policy to learn more. By continuing to use the site, you agree to this use of cookies and data.
EN

Hourly Weather Krasovka

Today, 9 July, Thursday

Time Temperature Precipitation Wind Pressure Humidity
00:00 +30°C° 0 mm 7 mps 739 mmHg 35%
01:00 +29°C° 0 mm 6 mps 739 mmHg 38%
02:00 +28°C° 0 mm 5 mps 739 mmHg 42%
03:00 +26°C° 0 mm 3 mps 739 mmHg 45%
04:00 +25°C° 0 mm 3 mps 740 mmHg 56%
05:00 +25°C° 0 mm 3 mps 740 mmHg 67%
06:00 +24°C° 0 mm 3 mps 740 mmHg 78%
07:00 +25°C° 0 mm 2 mps 740 mmHg 74%
08:00 +26°C° 0 mm 2 mps 740 mmHg 70%
09:00 +27°C° 0 mm 2 mps 741 mmHg 69%
10:00 +28°C° 0 mm 2 mps 741 mmHg 68%
11:00 +28°C° 0 mm 2 mps 742 mmHg 68%
12:00 +28°C° 0 mm 3 mps 742 mmHg 68%
13:00 +27°C° 1.8 mm 4 mps 742 mmHg 72%
14:00 +27°C° 1.8 mm 5 mps 742 mmHg 76%
15:00 +26°C° 1.8 mm 6 mps 742 mmHg 79%
16:00 +23°C° 3.1 mm 5 mps 743 mmHg 83%
17:00 +22°C° 3.1 mm 5 mps 743 mmHg 86%
18:00 +21°C° 3.1 mm 5 mps 743 mmHg 89%
19:00 +20°C° 0.3 mm 5 mps 744 mmHg 89%
20:00 +19°C° 0.3 mm 4 mps 744 mmHg 90%
21:00 +18°C° 0.3 mm 4 mps 745 mmHg 90%
22:00 +18°C° 0 mm 4 mps 745 mmHg 89%
23:00 +18°C° 0 mm 4 mps 745 mmHg 88%

Tomorrow, 10 July, Friday

Time Temperature Precipitation Wind Pressure Humidity
00:00 +18°C° 0 mm 4 mps 745 mmHg 87%
01:00 +17°C° 0 mm 4 mps 746 mmHg 87%
02:00 +15°C° 0 mm 4 mps 746 mmHg 87%
03:00 +15°C° 0 mm 5 mps 746 mmHg 88%
04:00 +15°C° 0 mm 5 mps 746 mmHg 87%
05:00 +15°C° 0 mm 4 mps 747 mmHg 87%
06:00 +15°C° 0 mm 4 mps 747 mmHg 87%
07:00 +18°C° 0 mm 4 mps 747 mmHg 80%
08:00 +19°C° 0 mm 5 mps 748 mmHg 74%
09:00 +21°C° 0 mm 5 mps 748 mmHg 67%
10:00 +21°C° 0 mm 5 mps 748 mmHg 64%
11:00 +22°C° 0 mm 5 mps 748 mmHg 61%
12:00 +23°C° 0 mm 5 mps 748 mmHg 58%
13:00 +25°C° 0 mm 5 mps 748 mmHg 57%
14:00 +25°C° 0 mm 5 mps 749 mmHg 57%
15:00 +25°C° 0 mm 4 mps 749 mmHg 57%
16:00 +25°C° 0 mm 4 mps 749 mmHg 60%
17:00 +25°C° 0 mm 3 mps 749 mmHg 63%
18:00 +24°C° 0 mm 3 mps 749 mmHg 66%
19:00 +23°C° 0 mm 2 mps 749 mmHg 71%
20:00 +20°C° 0 mm 2 mps 750 mmHg 76%
21:00 +18°C° 0 mm 2 mps 750 mmHg 81%
22:00 +18°C° 0 mm 2 mps 750 mmHg 83%
23:00 +17°C° 0 mm 3 mps 750 mmHg 85%

Day after tomorrow, 11 July, Saturday

Time Temperature Precipitation Wind Pressure Humidity
00:00 +16°C° 0 mm 3 mps 750 mmHg 87%
01:00 +16°C° 0 mm 3 mps 751 mmHg 88%
02:00 +16°C° 0 mm 3 mps 751 mmHg 88%
03:00 +14°C° 0 mm 3 mps 751 mmHg 89%
04:00 +16°C° 0 mm 3 mps 751 mmHg 87%
05:00 +16°C° 0 mm 3 mps 751 mmHg 85%
06:00 +17°C° 0 mm 3 mps 751 mmHg 83%
07:00 +18°C° 0 mm 4 mps 751 mmHg 78%
08:00 +20°C° 0 mm 4 mps 751 mmHg 73%
09:00 +22°C° 0 mm 4 mps 752 mmHg 68%
10:00 +23°C° 0 mm 4 mps 751 mmHg 63%
11:00 +25°C° 0 mm 3 mps 751 mmHg 59%
12:00 +26°C° 0 mm 3 mps 751 mmHg 54%
13:00 +26°C° 0 mm 3 mps 751 mmHg 53%
14:00 +27°C° 0 mm 3 mps 751 mmHg 52%
15:00 +27°C° 0 mm 3 mps 750 mmHg 51%
16:00 +27°C° 0 mm 3 mps 750 mmHg 55%
17:00 +26°C° 0 mm 3 mps 750 mmHg 59%
18:00 +26°C° 0 mm 3 mps 750 mmHg 64%
19:00 +24°C° 0 mm 3 mps 750 mmHg 68%
20:00 +21°C° 0 mm 3 mps 750 mmHg 72%
21:00 +19°C° 0 mm 3 mps 750 mmHg 76%
22:00 +19°C° 0 mm 3 mps 750 mmHg 78%
23:00 +18°C° 0 mm 3 mps 750 mmHg 80%

12 July, Sunday

Time Temperature Precipitation Wind Pressure Humidity
00:00 +17°C° 0 mm 3 mps 750 mmHg 82%
01:00 +17°C° 0 mm 3 mps 749 mmHg 83%
02:00 +17°C° 0 mm 3 mps 749 mmHg 84%
03:00 +16°C° 0 mm 3 mps 749 mmHg 84%
04:00 +17°C° 0 mm 3 mps 749 mmHg 83%
05:00 +18°C° 0 mm 3 mps 749 mmHg 82%
06:00 +18°C° 0 mm 3 mps 749 mmHg 81%
07:00 +20°C° 0 mm 3 mps 748 mmHg 77%
08:00 +22°C° 0 mm 4 mps 748 mmHg 73%
09:00 +25°C° 0 mm 4 mps 748 mmHg 68%
10:00 +26°C° 0 mm 4 mps 748 mmHg 66%
11:00 +27°C° 0 mm 4 mps 748 mmHg 64%
12:00 +28°C° 0 mm 5 mps 748 mmHg 62%
13:00 +29°C° 0 mm 4 mps 747 mmHg 62%
14:00 +30°C° 0 mm 4 mps 747 mmHg 63%
15:00 +30°C° 0 mm 4 mps 747 mmHg 63%
16:00 +30°C° 0 mm 3 mps 746 mmHg 65%
17:00 +30°C° 0 mm 3 mps 746 mmHg 68%
18:00 +30°C° 0 mm 3 mps 746 mmHg 71%
19:00 +28°C° 0.7 mm 3 mps 745 mmHg 77%
20:00 +26°C° 0.7 mm 3 mps 745 mmHg 84%
21:00 +24°C° 0.7 mm 3 mps 745 mmHg 91%
22:00 +24°C° 0.5 mm 3 mps 745 mmHg 89%
23:00 +22°C° 0.5 mm 3 mps 745 mmHg 86%

13 July, Monday

Time Temperature Precipitation Wind Pressure Humidity
00:00 +21°C° 0.5 mm 3 mps 745 mmHg 84%
01:00 +21°C° 0 mm 3 mps 744 mmHg 84%
02:00 +20°C° 0 mm 3 mps 744 mmHg 84%
03:00 +19°C° 0 mm 3 mps 744 mmHg 84%
04:00 +20°C° 0 mm 3 mps 744 mmHg 85%
05:00 +20°C° 0 mm 3 mps 744 mmHg 85%
06:00 +20°C° 0 mm 3 mps 743 mmHg 85%
07:00 +22°C° 0 mm 3 mps 743 mmHg 79%
08:00 +25°C° 0 mm 4 mps 743 mmHg 74%
09:00 +27°C° 0 mm 4 mps 743 mmHg 69%
10:00 +27°C° 0 mm 4 mps 743 mmHg 67%
11:00 +28°C° 0 mm 5 mps 743 mmHg 65%
12:00 +28°C° 0 mm 5 mps 743 mmHg 63%
13:00 +28°C° 0.1 mm 5 mps 743 mmHg 65%
14:00 +27°C° 0.1 mm 5 mps 743 mmHg 68%
15:00 +27°C° 0.1 mm 5 mps 742 mmHg 71%
16:00 +26°C° 0.1 mm 5 mps 742 mmHg 73%
17:00 +25°C° 0.1 mm 4 mps 742 mmHg 75%
18:00 +25°C° 0.1 mm 4 mps 742 mmHg 77%
19:00 +23°C° 0.4 mm 4 mps 742 mmHg 80%
20:00 +22°C° 0.4 mm 3 mps 742 mmHg 82%
21:00 +22°C° 0.4 mm 3 mps 742 mmHg 84%
22:00 +21°C° 0 mm 3 mps 742 mmHg 85%
23:00 +21°C° 0 mm 2 mps 741 mmHg 86%

14 July, Tuesday

Time Temperature Precipitation Wind Pressure Humidity
00:00 +20°C° 0 mm 2 mps 741 mmHg 87%
01:00 +20°C° 0 mm 2 mps 741 mmHg 87%
02:00 +20°C° 0 mm 2 mps 741 mmHg 87%
03:00 +20°C° 0 mm 3 mps 741 mmHg 87%
04:00 +20°C° 0 mm 3 mps 741 mmHg 88%
05:00 +20°C° 0 mm 3 mps 741 mmHg 88%
06:00 +20°C° 0 mm 3 mps 741 mmHg 89%
07:00 +22°C° 0 mm 4 mps 741 mmHg 84%
08:00 +23°C° 0 mm 4 mps 740 mmHg 80%
09:00 +25°C° 0 mm 4 mps 740 mmHg 76%
10:00 +25°C° 0 mm 4 mps 740 mmHg 75%
11:00 +26°C° 0 mm 4 mps 740 mmHg 75%
12:00 +26°C° 0 mm 4 mps 740 mmHg 75%
13:00 +27°C° 1.1 mm 4 mps 740 mmHg 73%
14:00 +28°C° 1.1 mm 4 mps 739 mmHg 71%
15:00 +28°C° 1.1 mm 4 mps 739 mmHg 69%
16:00 +28°C° 2.2 mm 3 mps 739 mmHg 71%
17:00 +27°C° 2.2 mm 3 mps 739 mmHg 74%
18:00 +27°C° 2.2 mm 2 mps 739 mmHg 77%
19:00 +26°C° 0.2 mm 2 mps 739 mmHg 79%
20:00 +25°C° 0.2 mm 2 mps 739 mmHg 81%
21:00 +24°C° 0.2 mm 2 mps 739 mmHg 83%
22:00 +23°C° 0.1 mm 2 mps 739 mmHg 86%
23:00 +21°C° 0.1 mm 2 mps 739 mmHg 89%
Show more